Theta_e
333 334 337 340 341 340 345 347 348 350 353 355 356 355 350 348 351 352 352 353 353 353 353 353 354 354 353 354 353 353 350 352 351 355 354 356 352 348 346 344 344 345 345 345 347 350 348 349 348 347 348 347 347 348 348 349 349 349 351 349 346 347 345
333 334 334 338 340 341 346 348 350 351 354 356 355 354 349 349 352 351 353 353 353 354 352 352 353 354 354 353 354 353 352 349 348 350 354 351 349 348 349 348 346 347 347 350 349 348 349 346 347 348 346 347 346 348 346 348 349 348 346 347 345 345 344
337 336 336 340 341 342 347 348 351 352 356 355 352 351 347 350 352 352 354 352 353 354 352 352 354 354 352 353 352 352 350 349 346 345 344 345 344 341 345 346 347 347 347 347 348 347 349 348 348 348 346 346 345 346 347 347 348 348 348 348 345 343 344
337 337 340 343 345 346 348 348 348 352 357 354 352 350 349 352 353 354 354 353 352 352 352 353 353 353 352 351 351 351 350 349 348 346 344 343 344 346 346 345 346 347 347 347 346 344 345 347 346 347 346 346 346 346 345 346 345 346 347 346 347 345 346
339 340 342 342 342 343 345 347 346 350 353 353 353 352 350 352 352 353 353 353 350 351 353 353 351 352 352 353 350 350 350 349 350 349 348 345 347 350 343 342 343 344 348 345 348 349 350 348 345 345 346 346 344 344 344 345 344 347 346 346 345 344 344
334 341 338 336 339 338 340 344 344 346 349 351 352 350 348 347 349 349 350 352 351 351 355 354 353 352 351 351 352 350 352 350 349 349 347 347 347 346 344 344 341 342 340 347 345 344 344 344 344 343 342 339 340 341 341 343 343 343 344 345 344 344 344
338 341 339 339 340 339 340 345 346 346 347 349 350 349 346 347 347 348 349 348 346 350 350 349 350 350 351 352 352 351 349 348 348 347 346 346 346 346 346 346 346 343 342 344 345 345 343 343 345 345 342 341 343 342 344 344 344 345 345 344 344 344 343
339 339 342 342 343 339 337 340 346 346 345 346 344 343 346 347 347 347 346 345 344 345 346 346 348 350 352 352 352 349 349 349 347 347 348 345 347 346 345 344 344 346 347 342 344 346 342 345 342 343 344 341 342 344 343 344 345 342 344 343 342 341 340
340 347 344 339 344 343 344 345 347 346 346 344 343 345 344 343 342 344 343 343 343 343 343 342 344 349 353 351 350 350 349 350 348 347 345 344 343 339 339 338 342 343 342 341 339 348 346 344 343 344 344 343 343 344 343 344 344 343 344 342 341 339 339
348 343 348 345 344 345 344 343 347 346 343 341 342 343 341 339 340 341 341 340 339 339 340 340 343 345 349 350 349 349 349 347 347 344 340 338 341 337 337 336 337 341 344 338 342 341 345 343 342 342 343 342 344 343 343 344 344 345 344 343 341 339 339
342 352 351 348 349 347 345 343 344 344 343 341 343 343 344 342 338 339 340 340 338 337 339 339 343 344 347 347 345 346 348 344 342 340 341 338 334 334 332 332 332 339 335 337 335 335 338 346 348 346 344 341 342 342 342 343 344 343 343 342 340 340 338
351 353 355 353 353 349 346 346 345 345 344 342 346 347 346 347 344 341 340 341 340 338 339 338 337 346 345 345 345 347 344 344 342 340 340 339 338 336 337 336 341 336 332 338 334 336 334 338 340 342 343 343 344 344 342 343 343 344 343 341 339 332 329
347 353 356 351 353 348 349 348 346 345 345 346 346 349 348 346 342 339 344 340 337 342 341 346 341 345 344 341 341 344 342 342 343 343 337 343 343 343 338 335 333 333 334 335 335 333 331 332 337 341 340 342 342 341 340 340 341 343 344 342 336 332 331
345 346 350 354 355 350 347 347 348 346 345 348 349 350 348 344 341 344 342 337 339 335 333 336 345 346 344 342 345 345 342 341 344 343 345 344 343 343 343 341 342 342 342 339 336 333 333 331 332 334 338 337 337 338 339 339 339 340 344 341 338 337 336
337 339 343 341 347 353 349 347 348 348 346 348 350 349 346 342 343 347 342 338 341 334 338 345 342 343 343 345 345 344 345 345 344 345 345 344 344 343 343 342 343 343 342 342 339 336 333 334 333 337 337 337 337 338 339 338 339 342 338 339 341 339 338
332 337 341 346 349 351 353 351 350 348 347 348 349 347 343 342 344 342 339 337 335 340 342 344 342 345 344 342 343 345 344 345 345 345 345 343 342 343 343 340 342 339 341 341 338 338 338 340 340 335 334 336 337 338 337 338 341 338 332 333 339 340 339
330 333 340 345 349 350 351 351 350 348 348 349 348 346 344 342 344 341 335 337 338 342 338 347 345 346 345 344 344 345 345 344 344 344 343 343 343 343 342 342 342 342 342 342 341 341 340 338 338 336 336 335 334 335 336 338 339 332 326 327 330 337 339
332 340 339 343 346 348 350 348 349 348 348 348 349 347 346 344 343 342 340 339 337 336 339 343 345 345 346 345 345 345 344 343 344 343 342 343 343 343 343 342 342 342 341 340 339 341 341 337 338 339 337 335 334 334 336 336 335 327 325 327 328 331 338
333 335 342 345 344 345 345 343 349 350 349 350 349 348 347 346 343 338 338 338 339 338 338 343 343 347 347 345 344 344 343 344 343 343 342 342 342 343 343 343 342 341 339 337 338 339 340 339 337 337 339 337 336 335 334 335 331 324 324 325 325 327 331
335 336 336 337 345 344 348 349 350 352 352 353 352 349 346 348 342 339 339 337 338 338 342 344 345 347 346 346 345 344 344 343 342 342 342 343 343 343 343 342 341 340 338 337 339 338 337 338 339 339 339 338 337 337 336 337 330 323 322 322 323 325 328
335 337 338 338 346 346 354 355 355 356 356 353 350 349 345 344 340 338 338 336 336 341 347 345 345 347 347 345 345 344 343 343 342 342 342 343 343 343 342 341 341 340 339 336 335 336 339 339 339 339 336 335 333 333 336 338 321 321 320 319 319 321 326
328 329 335 340 350 353 356 355 356 353 355 353 351 348 344 340 336 335 336 336 338 342 347 346 346 346 346 345 344 343 343 342 342 342 342 342 342 341 341 341 342 340 340 339 336 337 337 337 338 336 335 335 335 336 335 332 323 321 319 317 317 321 332
328 334 339 348 347 352 360 358 358 354 358 354 351 348 346 340 335 338 338 337 339 344 343 344 346 345 346 344 344 342 342 341 340 341 341 341 340 340 339 340 341 341 341 338 336 335 335 335 334 336 335 334 336 336 336 334 332 320 316 314 316 321 334
330 338 343 345 355 352 359 358 357 360 354 352 350 348 347 341 341 345 345 341 341 339 339 341 342 345 345 344 343 343 343 342 341 341 340 341 340 340 340 340 342 341 341 337 334 332 331 332 334 337 337 334 334 330 331 330 325 312 311 311 314 323 334
330 339 345 347 348 350 352 356 357 353 354 352 349 348 349 346 345 344 345 343 338 338 339 341 344 344 344 344 344 344 343 342 342 341 340 340 339 338 338 339 340 340 339 337 335 334 338 337 336 333 333 329 328 335 330 329 325 311 311 312 314 320 332
345 343 346 351 350 353 356 357 358 352 351 349 350 350 350 348 346 343 344 341 339 338 341 343 345 348 348 346 345 344 343 342 342 342 340 340 341 340 340 341 337 336 335 336 334 333 334 333 331 331 328 328 327 330 334 334 337 330 310 311 312 315 327
344 344 346 346 348 350 354 354 354 350 349 349 352 350 348 346 346 346 347 348 345 344 345 347 348 350 349 348 344 342 342 342 342 342 341 341 341 341 340 338 336 336 336 333 333 338 335 332 331 330 334 330 330 330 331 333 333 332 314 311 310 314 316
339 342 341 349 352 351 351 349 352 351 348 354 353 350 350 351 352 351 353 351 349 351 351 354 356 352 350 349 345 343 341 341 342 343 342 342 342 341 340 341 341 339 338 337 337 335 334 335 336 336 333 334 330 332 334 334 331 334 325 313 308 307 308
340 336 338 350 350 352 349 349 348 345 346 344 346 350 351 351 352 353 351 352 351 353 357 356 355 355 352 349 346 344 343 344 344 343 342 342 342 340 339 341 341 341 342 343 340 337 333 333 335 334 329 328 329 330 336 337 335 326 330 315 309 305 305
341 343 350 348 350 350 347 349 347 344 346 341 344 347 348 354 353 352 351 350 351 353 354 357 355 355 352 350 348 346 345 344 344 345 344 343 342 340 341 341 340 341 342 337 329 326 328 332 332 330 326 326 326 326 333 338 339 327 326 321 308 304 302
336 340 344 344 344 343 344 343 343 340 344 348 344 344 349 353 353 351 348 349 348 350 351 352 352 351 350 348 347 348 346 345 345 342 341 340 339 339 339 338 339 339 336 334 332 329 330 329 331 329 328 326 326 330 335 333 337 334 330 324 321 313 311
342 342 341 342 342 344 341 338 338 342 346 349 351 352 352 351 348 343 346 345 345 349 350 349 349 349 347 347 347 346 346 340 340 337 337 339 338 337 340 341 338 333 332 331 332 332 328 328 330 329 328 328 328 327 331 330 331 333 333 328 325 320 315
341 342 339 337 340 343 339 337 336 341 343 343 345 345 343 345 345 349 348 347 345 346 348 346 347 345 346 347 346 345 339 339 332 334 336 334 335 338 338 331 336 331 327 327 328 328 327 329 327 327 327 327 327 328 332 327 328 330 323 321 320 319 319
340 339 342 344 342 349 341 339 337 338 338 342 344 345 339 336 336 337 340 330 329 331 336 343 341 341 344 344 345 344 341 339 338 333 331 334 333 331 330 332 331 334 331 330 329 327 325 326 327 326 327 327 325 324 328 326 322 316 315 315 313 314 315
338 337 341 338 339 346 345 342 340 342 341 340 340 340 339 334 331 330 332 331 333 343 340 336 334 339 339 340 343 342 340 335 331 336 332 330 329 330 321 315 327 332 332 328 322 327 328 326 329 329 327 326 326 325 325 323 315 311 303 308 301 305 308
331 335 337 340 337 338 337 339 341 341 340 340 340 338 337 335 334 333 328 330 332 338 341 340 337 335 334 336 336 334 332 333 331 337 334 331 331 329 315 305 298 303 318 318 305 299 295 303 320 317 322 322 316 318 318 315 310 300 296 295 294 294 294
333 334 336 338 336 336 336 337 339 340 340 339 339 336 335 336 332 336 332 335 336 333 337 336 337 334 332 332 330 330 341 338 339 336 333 332 333 331 325 318 311 297 296 301 301 297 294 293 294 298 303 318 313 307 304 303 298 295 295 294 294 293 293
333 333 335 337 337 336 337 337 338 338 338 338 338 336 336 330 334 337 328 333 335 335 337 335 337 334 331 330 329 343 342 335 335 332 331 333 334 333 333 325 320 318 299 294 298 298 294 294 294 294 297 298 306 311 313 305 298 293 294 295 294 294 293
Wind_Speed
18 17 14 13 13 14 13 14 13 14 13 13 12 14 14 12 11 10 10 9 9 9 8 7 7 6 6 5 4 4 3 2 3 1 1 1 1 1 2 2 2 2 2 3 3 3 3 3 4 4 3 4 4 4 3 2 2 3 4 3 4 3 4
15 14 14 15 14 14 13 13 12 13 14 13 12 13 12 12 11 12 10 10 10 10 9 8 8 7 6 5 5 4 5 4 3 3 2 2 2 3 4 1 2 2 3 3 2 2 3 4 4 3 4 4 4 4 4 3 3 3 3 3 5 4 4
6 11 11 14 14 12 14 14 12 14 15 14 13 12 12 12 12 12 11 11 11 10 9 9 8 7 6 6 5 5 5 4 3 3 4 4 3 2 2 2 2 2 3 3 3 3 2 3 3 3 4 4 4 4 3 3 3 2 3 2 3 3 4
14 15 11 15 13 11 14 14 14 14 15 15 14 14 11 12 12 11 11 12 12 10 10 10 9 8 7 6 5 5 4 4 3 3 2 2 2 2 2 2 3 3 3 2 3 3 3 3 3 3 4 4 4 4 4 4 4 3 2 3 3 3 3
14 14 9 9 13 12 14 14 15 12 14 15 13 11 10 11 12 12 11 11 13 12 11 10 9 8 6 5 5 4 4 4 4 3 2 2 1 0 2 3 3 4 2 3 3 2 2 2 3 3 3 3 4 4 4 3 3 2 2 2 3 3 4
8 13 14 14 15 15 14 17 18 18 17 16 14 12 12 15 13 15 14 12 12 11 10 10 9 8 6 6 5 5 3 3 3 3 2 3 2 3 3 2 2 4 5 3 2 2 3 3 4 4 4 5 5 5 4 4 4 3 3 3 3 4 4
4 12 13 15 16 15 15 16 17 16 15 13 12 11 13 14 15 15 14 14 14 12 13 12 9 7 6 5 5 4 5 4 4 4 4 5 4 4 4 3 4 3 5 5 3 3 4 4 3 3 4 5 5 5 5 4 4 3 3 3 3 3 3
5 6 14 11 13 16 17 14 15 15 12 10 12 14 15 13 14 15 15 14 14 14 13 13 9 7 6 5 5 6 6 5 4 5 4 5 4 4 3 4 5 5 4 5 6 5 4 3 4 3 3 5 5 5 6 5 5 5 3 3 3 3 4
8 4 6 12 15 15 15 15 15 14 15 15 14 13 14 14 14 16 15 14 13 13 13 13 12 8 7 6 5 6 5 5 5 4 4 4 4 6 6 7 8 8 8 6 4 3 3 4 4 4 4 4 4 4 5 5 5 4 4 4 4 5 5
4 9 6 9 16 14 14 14 13 12 13 14 13 14 15 14 11 11 14 14 13 14 14 12 13 12 9 7 7 6 5 5 4 4 6 7 6 8 7 5 5 4 0 2 2 3 3 4 5 5 5 4 3 3 4 4 4 4 4 4 5 6 6
2 6 7 8 12 17 15 13 14 14 14 14 13 15 15 14 18 17 12 13 14 13 14 11 9 13 11 10 9 7 5 6 6 6 6 6 5 6 7 7 5 4 5 5 5 5 5 4 2 2 3 3 2 3 4 4 4 5 4 3 3 5 7
3 5 6 7 9 15 16 14 13 12 13 13 13 15 15 14 14 12 11 12 13 12 11 11 7 13 12 11 9 8 8 6 6 7 6 7 5 5 4 4 3 5 7 4 5 5 5 4 4 3 3 3 2 2 4 4 4 5 4 3 2 4 5
5 4 6 8 8 12 12 11 15 15 13 13 14 13 13 12 12 11 9 10 9 6 6 5 7 6 12 10 10 7 8 8 7 5 7 5 4 4 4 5 5 5 7 7 7 8 8 7 5 4 4 3 2 3 4 4 4 4 4 1 1 3 5
3 6 5 4 5 11 13 15 14 14 15 13 13 12 11 10 10 8 8 10 5 7 8 6 4 4 3 5 3 7 7 6 6 6 4 3 2 2 2 3 2 3 3 4 6 8 8 7 6 6 4 5 5 5 5 5 5 4 2 3 3 4 6
8 9 10 11 12 10 13 14 14 16 16 14 14 13 12 11 9 7 8 7 6 7 5 6 10 6 5 4 4 4 5 4 4 4 4 4 4 4 4 3 3 3 4 4 5 6 7 6 7 5 6 6 6 6 6 5 4 1 0 3 4 5 5
11 9 10 10 7 6 9 12 14 14 15 14 15 13 13 11 9 10 10 9 9 7 4 8 8 7 6 6 5 5 5 5 4 4 4 4 4 4 4 4 4 5 4 4 5 5 4 4 4 6 6 6 5 5 5 4 2 4 8 7 4 4 4
7 11 11 10 8 7 4 6 10 13 14 14 15 15 14 13 10 11 12 9 9 9 7 7 9 7 7 7 7 6 6 6 6 5 5 5 4 4 4 4 4 4 4 5 4 4 5 6 6 4 4 6 7 7 5 4 4 8 10 10 10 6 4
6 5 9 11 10 11 11 9 11 14 15 16 15 15 14 12 12 11 8 7 6 4 7 7 9 9 8 7 7 7 8 7 7 7 6 6 6 5 5 5 4 4 4 5 5 5 4 4 4 4 5 5 6 6 5 5 6 8 10 10 11 8 5
4 5 4 10 12 13 14 16 16 14 14 15 15 15 14 12 10 9 8 7 7 9 12 9 11 9 8 8 8 8 7 7 7 7 7 6 6 5 5 5 5 5 5 6 6 4 4 4 4 5 4 4 5 5 5 5 7 10 11 11 10 9 7
7 7 8 7 10 12 13 13 13 14 16 14 13 14 13 11 12 10 9 8 5 10 10 9 9 9 9 8 8 8 7 7 7 7 7 6 6 6 5 5 6 5 5 5 4 4 5 4 4 3 4 4 5 5 4 5 5 4 9 9 10 10 6
7 6 7 8 6 9 10 11 11 13 14 15 15 13 11 10 11 10 8 8 11 12 9 10 10 9 9 9 9 8 8 8 7 7 6 6 6 6 6 6 5 6 6 6 5 4 4 4 3 3 5 7 6 4 4 1 6 1 5 9 10 10 5
9 9 8 7 5 8 10 12 11 13 14 13 12 13 13 12 12 11 9 9 13 11 8 10 9 10 9 9 9 9 9 8 8 7 6 6 6 7 7 7 6 6 6 6 6 5 4 4 4 4 5 5 5 2 4 4 3 3 6 8 10 4 3
8 7 7 5 7 8 8 9 9 11 10 12 12 13 14 14 14 11 11 13 12 9 9 8 9 9 10 10 10 10 9 9 9 8 8 7 7 8 8 7 7 6 5 6 6 6 6 5 5 4 5 5 4 2 1 3 3 2 6 7 3 3 4
6 6 6 7 6 8 8 8 9 9 11 13 13 13 12 14 13 12 11 10 10 11 10 10 10 10 9 10 10 9 9 9 9 9 9 8 9 9 7 7 6 6 5 6 6 7 6 5 4 4 4 5 3 2 2 3 5 3 3 3 4 2 4
6 9 8 9 11 11 11 9 9 11 10 11 12 11 11 12 12 12 10 11 12 12 12 11 10 11 11 10 9 8 9 9 10 10 10 10 10 9 8 7 6 6 5 6 6 6 4 3 3 5 5 7 6 4 4 5 2 7 5 3 4 3 4
6 10 9 9 10 10 9 9 10 12 12 13 11 11 11 11 10 10 9 10 10 10 10 10 10 9 9 9 9 8 8 9 9 10 10 10 8 8 7 5 6 6 6 6 5 5 3 5 7 8 7 5 5 3 3 2 2 5 4 4 4 4 4
8 8 10 12 12 12 10 10 10 12 12 10 10 9 9 8 8 7 8 7 7 7 6 8 9 9 8 8 9 9 9 9 10 11 10 8 7 7 6 7 7 7 6 7 5 3 5 6 5 5 3 3 4 6 3 2 2 2 7 3 2 3 7
9 5 2 7 12 12 12 13 11 12 12 9 9 8 6 6 4 3 3 4 5 5 5 3 4 6 8 8 9 10 10 10 8 8 8 8 8 7 7 5 5 4 4 4 3 5 6 5 3 2 2 3 6 6 1 4 4 2 2 4 2 3 8
8 10 9 10 13 13 13 12 13 13 13 12 8 6 4 6 4 4 3 3 3 2 2 3 3 4 6 8 9 9 9 8 8 8 7 7 8 8 7 5 5 3 2 2 1 3 5 5 3 2 5 5 5 7 5 2 1 3 2 0 1 6 8
9 5 5 10 14 15 13 11 10 11 12 12 9 6 3 3 5 5 4 3 1 2 3 3 4 5 5 6 7 7 8 7 7 7 6 7 7 8 7 6 5 4 2 6 6 4 7 5 4 2 1 2 3 7 4 3 2 3 5 6 10 10 9
10 8 8 7 11 11 11 12 9 9 7 5 10 9 7 4 5 5 4 2 1 2 3 3 4 5 5 5 5 5 6 5 1 4 4 7 8 7 6 5 3 4 3 4 5 5 4 1 3 1 3 3 5 5 2 3 3 4 5 6 6 7 3
8 10 9 9 7 7 9 10 10 10 13 10 9 8 7 5 4 3 2 1 1 2 3 4 4 5 5 5 5 4 2 3 4 7 9 8 3 5 3 3 5 6 6 2 2 3 3 6 5 5 4 5 3 4 3 4 1 1 3 3 2 4 6
5 7 5 7 7 4 7 9 9 10 11 10 7 8 7 7 5 4 3 3 4 5 6 6 5 3 3 4 5 1 1 3 3 8 9 10 8 6 1 1 3 5 2 3 4 3 4 6 6 5 5 5 5 4 2 6 3 1 3 2 2 3 5
8 5 2 5 6 1 5 7 8 10 9 6 7 6 6 4 3 2 0 2 4 5 1 2 1 3 4 5 4 3 2 1 4 0 2 2 5 7 9 7 4 4 5 5 4 3 6 8 8 7 7 5 2 5 3 5 5 4 2 3 4 4 5
10 12 11 5 8 4 6 8 11 10 10 8 7 6 5 5 3 4 3 2 3 7 4 1 2 2 4 5 4 4 2 2 6 3 3 4 3 4 2 4 4 2 1 5 4 2 7 10 7 7 8 6 5 4 2 3 5 2 2 1 1 3 4
10 9 7 3 5 8 9 9 8 7 8 6 5 6 4 3 3 2 2 3 4 5 5 5 4 4 5 5 7 8 6 6 7 7 5 4 3 4 6 8 11 9 5 4 7 9 10 8 3 3 4 6 6 5 4 5 3 3 3 2 3 5 8
8 2 12 7 5 5 7 7 7 7 6 5 3 5 5 3 3 3 3 3 2 2 2 2 2 4 6 6 8 3 3 2 3 4 5 5 5 7 8 6 7 12 12 9 8 8 10 9 8 11 12 6 7 8 13 10 7 3 1 3 4 6 7
11 12 9 7 8 9 8 8 6 7 9 5 4 4 3 4 4 4 1 2 3 1 0 2 2 4 5 6 7 1 1 1 4 4 4 2 3 4 2 4 4 2 7 7 6 8 9 9 9 10 13 14 10 7 6 7 5 4 5 5 6 7 8
Wind_Direction
191 197 181 174 177 181 170 168 169 160 160 158 164 168 168 164 157 157 166 170 180 173 177 176 184 186 188 185 187 157 180 174 155 150 150 117 146 274 253 261 274 278 296 293 290 305 306 308 301 294 305 310 297 302 298 314 313 269 264 307 310 303 316
188 199 183 176 178 180 170 169 165 161 159 163 167 170 171 165 157 163 167 173 182 179 176 180 186 187 192 188 166 176 179 178 183 150 135 186 193 219 224 270 345 319 274 264 317 318 297 280 277 302 303 304 299 305 317 303 302 301 297 315 336 321 316
203 218 189 170 178 181 166 169 168 163 164 168 172 175 176 168 162 167 166 172 182 180 174 185 185 190 191 183 175 174 177 185 202 181 191 214 223 276 345 279 274 290 303 294 251 247 265 288 303 300 291 290 302 295 291 295 275 285 295 292 235 261 270
188 210 188 166 171 172 169 174 168 159 168 173 175 177 173 168 165 168 170 173 177 177 180 183 185 192 184 183 179 173 183 189 189 201 230 239 250 234 224 253 238 251 261 306 344 302 270 276 284 283 291 284 285 287 273 261 263 257 276 274 277 263 269
180 186 152 176 175 174 176 172 174 162 170 178 176 171 170 169 168 172 174 176 177 180 182 181 185 189 180 177 176 179 183 189 183 197 222 229 250 17 277 274 260 260 300 312 287 299 302 306 301 285 284 287 277 274 283 287 294 287 276 289 284 284 277
191 177 138 187 190 187 179 174 175 173 174 180 177 170 170 175 179 182 180 175 174 178 178 178 185 179 178 174 181 169 169 178 184 204 210 208 206 228 243 264 294 270 255 264 290 289 294 280 274 288 297 298 297 294 293 294 294 294 283 287 269 285 294
211 171 177 184 176 183 177 173 179 173 170 170 179 174 175 181 185 186 182 177 179 176 178 181 184 176 174 175 172 184 174 179 188 199 203 206 212 225 227 224 250 257 252 235 228 242 255 266 279 292 286 289 297 297 299 293 284 277 279 271 267 260 269
199 203 173 186 147 173 185 182 176 173 168 165 177 184 184 183 187 192 185 179 183 180 181 182 178 175 172 175 176 182 189 197 194 202 199 212 219 225 224 241 235 237 242 233 220 212 234 244 258 262 280 289 291 296 297 298 292 289 289 284 284 290 284
168 191 183 181 154 183 182 179 180 175 170 178 183 184 182 183 195 198 188 182 184 180 183 185 177 175 166 173 184 183 185 191 193 200 214 221 227 232 236 234 227 221 226 231 246 222 217 227 236 241 244 254 268 283 292 293 301 311 310 311 293 289 291
145 167 174 200 160 176 180 183 169 171 177 184 190 178 182 185 196 220 195 185 181 183 182 191 174 173 169 173 180 183 181 181 204 218 223 219 210 228 239 253 265 251 87 354 289 255 246 250 246 234 231 235 250 275 286 295 295 299 283 274 301 311 309
186 152 169 189 162 163 173 169 172 179 182 190 197 179 183 182 189 203 185 185 181 185 181 192 172 162 166 175 181 182 178 195 202 208 217 239 252 252 252 259 289 355 328 278 269 268 262 252 272 287 256 229 238 275 286 282 287 278 279 294 326 335 332
164 158 169 195 162 157 173 174 176 181 184 192 196 180 178 185 187 187 179 186 182 181 178 172 172 151 166 177 185 172 179 192 205 215 219 223 235 258 302 320 323 272 266 309 329 334 314 304 299 280 292 284 248 270 273 274 268 264 258 279 11 357 320
151 163 170 197 172 168 165 165 180 187 190 195 192 180 178 180 180 182 170 172 174 126 102 122 154 153 160 182 184 176 175 185 193 207 221 212 208 223 240 251 280 304 322 318 315 325 318 301 288 293 291 298 316 295 294 280 271 265 258 260 73 306 295
169 164 180 224 207 172 176 179 177 181 190 192 177 173 175 176 176 167 153 161 148 122 136 133 79 85 142 171 154 148 167 186 184 191 203 219 235 259 246 267 289 290 291 295 284 280 289 305 314 315 333 339 324 308 290 280 280 277 222 190 199 213 220
187 198 184 191 217 203 185 183 186 184 183 179 170 170 171 171 168 145 147 145 124 144 131 118 129 178 177 164 159 157 165 175 184 185 184 193 204 206 226 231 244 252 256 258 272 270 284 302 309 321 313 299 285 277 273 281 291 150 142 276 222 212 234
192 193 189 191 196 201 218 191 176 172 171 172 171 168 170 167 163 154 151 152 149 137 183 143 154 166 175 176 176 169 175 177 188 187 187 198 205 213 214 224 227 240 251 274 281 284 267 282 305 293 283 283 290 293 294 295 279 212 235 227 243 263 274
225 190 194 194 175 198 234 234 181 167 170 172 170 171 172 169 161 155 162 150 139 151 190 159 153 168 178 181 176 176 181 182 190 192 193 200 211 213 223 224 236 247 248 248 252 269 279 259 255 277 298 298 296 294 293 292 286 197 214 229 237 241 253
274 209 189 179 182 175 173 204 209 178 177 176 173 171 172 166 162 155 135 128 129 145 226 180 161 173 181 183 179 180 187 188 190 193 195 201 205 213 214 223 232 242 251 252 251 254 259 267 266 273 274 272 270 279 284 281 277 224 217 227 234 232 241
265 283 267 175 179 181 192 194 204 183 179 178 177 178 173 158 142 126 118 115 176 194 214 178 171 175 180 186 185 189 190 189 194 193 199 200 206 206 213 219 223 234 249 252 251 249 254 275 261 250 266 279 281 277 275 271 258 214 217 222 229 234 230
258 261 270 249 190 188 191 196 193 179 182 181 180 180 170 152 135 137 153 161 191 219 204 176 171 177 183 188 190 191 192 193 194 201 200 204 204 208 213 218 223 231 249 258 257 250 250 255 269 274 268 267 265 269 272 272 344 251 225 224 228 233 218
261 242 241 251 211 183 180 191 176 167 179 182 182 172 163 138 139 142 159 167 209 217 187 173 175 177 184 189 192 191 192 193 197 202 205 205 211 211 217 221 222 226 232 248 254 257 256 255 269 276 267 261 257 262 268 269 63 11 240 241 239 236 218
238 230 228 234 194 171 171 183 187 183 180 185 175 171 166 157 157 162 177 192 210 198 175 171 178 180 183 191 193 194 192 194 194 203 204 210 213 218 224 226 223 224 224 230 243 250 253 252 250 258 265 263 266 301 334 328 353 293 268 255 257 255 240
239 205 207 198 185 165 159 170 180 189 165 166 170 174 169 165 173 175 181 194 195 177 179 175 183 187 189 195 195 194 194 193 199 198 203 210 216 220 224 226 219 219 216 234 239 242 236 239 241 238 250 262 261 101 216 276 250 341 295 276 231 189 246
229 157 161 171 151 151 150 162 176 171 165 164 174 179 173 170 177 182 176 179 181 180 185 189 193 196 194 200 199 195 192 194 197 200 202 206 215 220 225 226 221 224 213 223 232 240 250 265 268 265 269 266 262 187 233 277 120 93 48 341 177 219 272
199 149 158 161 163 161 167 166 173 164 161 161 173 174 170 175 175 178 172 177 187 190 189 194 194 196 202 199 200 197 195 197 197 205 206 209 212 217 225 223 220 224 223 224 227 235 242 262 274 283 270 267 285 165 202 269 129 82 59 91 150 193 249
114 133 150 148 159 156 161 156 152 157 168 168 174 172 173 173 173 179 179 180 193 199 194 192 198 202 201 200 199 200 202 203 203 204 211 212 209 210 215 213 224 234 233 224 232 236 240 247 241 242 255 269 275 277 271 330 348 98 92 138 190 220 278
126 149 155 164 153 155 155 158 154 162 165 167 172 173 170 170 170 172 169 183 193 211 210 190 195 196 196 200 200 204 210 209 209 205 206 215 215 208 208 211 221 221 229 243 250 221 219 236 260 273 291 312 311 299 338 63 265 197 147 155 170 249 250
124 100 173 165 142 153 157 162 156 168 164 156 162 155 163 146 159 169 155 183 201 209 221 230 195 190 197 199 203 205 211 216 214 207 206 208 210 213 216 219 225 222 230 234 239 264 271 268 266 259 278 327 0 345 290 222 183 265 236 154 129 245 253
137 156 193 166 156 162 162 159 164 169 153 142 159 157 145 138 153 155 183 215 224 251 266 269 255 217 203 209 207 208 215 219 211 200 205 211 212 216 218 207 212 214 250 257 328 320 302 291 295 324 25 22 318 280 233 220 177 166 243 129 239 253 251
141 153 120 180 168 165 166 149 164 152 141 149 155 123 136 176 154 164 186 203 212 290 289 282 272 261 245 228 217 212 215 223 216 201 204 215 220 222 215 204 192 193 174 55 22 341 305 344 346 62 145 233 254 275 273 136 124 138 154 178 210 229 244
155 150 142 240 187 165 151 154 153 142 121 123 142 150 158 159 149 151 173 163 235 296 288 287 277 270 260 257 238 221 225 231 335 331 262 241 239 227 206 202 192 90 63 135 180 218 219 259 246 240 245 248 242 258 288 144 148 150 176 190 202 236 268
111 130 141 222 215 160 142 152 147 123 108 102 93 93 102 112 112 140 144 148 184 243 247 249 259 266 268 267 258 252 19 339 275 250 243 244 273 267 224 141 112 136 209 178 196 162 180 229 227 230 228 233 249 233 208 127 183 174 174 180 311 322 325
80 66 61 293 243 178 147 143 132 127 121 118 131 136 136 136 142 143 142 173 208 216 217 231 232 263 290 278 270 107 297 259 300 302 333 344 326 285 39 301 126 124 169 244 247 232 241 243 234 233 234 233 238 270 149 143 223 233 79 24 351 332 339
45 56 88 308 289 115 120 134 143 125 121 118 109 84 81 92 90 132 103 324 294 297 269 3 337 269 272 276 286 296 239 204 290 44 236 350 323 351 342 308 258 172 193 201 188 209 236 240 230 222 226 208 190 259 219 188 158 66 11 7 354 341 331
43 27 6 21 311 335 58 69 78 95 103 95 85 83 81 73 57 29 8 306 336 15 334 243 295 264 265 271 252 234 185 360 323 343 91 204 190 187 77 351 340 0 17 37 358 275 227 233 220 221 226 216 190 185 216 90 85 63 36 6 24 276 315
38 28 308 276 82 53 64 66 67 71 84 85 100 111 109 109 86 58 357 11 22 38 31 17 346 304 278 274 277 273 251 180 185 168 170 186 196 139 90 70 58 34 20 79 35 33 10 23 33 5 347 78 52 28 70 88 90 140 183 222 250 251 246
94 148 230 191 136 102 98 103 113 125 108 108 135 115 126 119 132 138 97 75 79 36 34 341 304 287 286 278 279 308 56 143 198 179 186 189 192 179 165 158 70 58 61 60 58 47 50 55 49 37 31 58 106 75 90 108 118 112 65 337 311 290 279
162 198 193 157 155 145 134 133 147 140 137 140 131 112 139 142 140 115 118 105 101 117 125 284 298 280 278 285 295 320 179 197 192 215 230 196 94 74 87 117 128 129 81 67 47 57 59 58 61 64 66 55 63 94 103 93 75 21 349 322 316 301 296